Temp
46 44 41 46 45 43 42 38 38 42 47 45 44 44 49 50 44 46 46 46 48 50 55 48 47 45 44 44 44 45 48 50 50 49 49 48 47 47 46 47 48 49 48 48
43 40 49 49 46 44 41 38 39 43 45 44 44 44 49 48 48 49 53 51 50 51 46 46 45 43 44 45 45 44 48 48 51 48 49 45 47 45 45 45 45 46 46 46
41 46 48 49 42 42 40 39 38 42 42 41 38 38 43 48 47 49 50 54 53 54 53 47 44 44 44 44 44 45 46 50 51 48 46 43 45 45 44 43 43 43 44 43
43 47 47 43 42 46 38 44 43 41 38 33 37 31 38 46 48 48 54 50 52 54 52 48 46 44 44 45 45 45 45 47 49 48 44 45 42 42 41 43 42 41 42 41
44 43 43 42 44 47 43 44 42 39 36 32 31 32 37 39 44 50 55 56 53 53 49 49 48 49 47 45 44 45 45 45 45 46 47 48 46 40 39 41 40 39 39 38
42 44 47 47 45 47 46 43 40 35 34 29 36 36 41 41 47 49 54 56 54 49 47 46 45 45 44 43 44 44 44 44 44 45 45 47 43 40 40 39 39 38 37 33
40 42 43 47 43 43 42 41 31 28 24 29 32 33 48 45 50 51 55 55 49 46 44 42 41 41 41 41 43 44 43 43 45 44 44 44 44 43 42 41 40 37 35 31
38 37 43 47 47 43 40 42 31 24 22 28 30 29 39 46 49 49 48 49 44 44 44 41 40 41 41 42 43 44 43 44 45 44 42 42 44 44 43 42 41 40 38 34
35 36 41 43 45 51 40 37 43 35 17 23 34 36 44 45 46 46 46 45 45 43 44 41 39 39 40 41 42 44 43 44 44 44 42 43 44 43 42 40 40 38 32 34
43 35 37 40 44 42 43 45 34 31 23 17 29 31 38 44 46 49 47 49 45 43 42 39 38 38 39 41 42 43 43 42 43 43 42 43 43 42 41 39 37 35 31 33
47 41 33 36 37 38 39 37 36 37 32 24 21 36 40 49 50 49 50 47 46 44 43 39 37 37 38 39 40 41 40 38 38 40 40 40 39 40 39 38 36 33 32 31
45 41 36 37 36 37 36 38 38 30 27 27 27 40 44 45 44 46 50 47 42 42 42 39 36 36 35 36 36 37 39 38 39 39 38 39 39 38 37 37 35 32 32 31
46 37 27 32 33 33 34 37 41 35 29 30 26 40 42 40 43 44 46 46 45 41 38 37 34 34 35 36 36 37 38 38 37 36 36 36 37 36 37 35 32 32 31 31
50 38 33 33 34 36 31 34 39 42 33 38 35 43 45 42 45 45 46 45 44 42 40 37 35 34 35 36 37 38 38 39 36 36 35 35 36 37 36 35 33 32 32 31
46 33 37 40 39 36 36 35 37 39 43 35 44 43 50 52 49 50 49 46 46 43 40 38 37 36 36 36 37 38 38 37 36 35 34 35 35 36 35 32 32 32 32 32
43 34 36 35 39 36 34 36 38 40 42 43 44 44 54 51 48 45 48 51 46 43 43 42 40 37 37 37 38 38 38 36 36 35 34 35 33 33 32 32 32 32 31 30
39 35 33 32 36 34 30 36 40 41 43 43 38 47 50 52 51 52 53 46 48 46 46 46 42 41 40 40 40 38 38 36 35 34 33 32 32 32 32 32 31 31 30 31
36 34 34 32 32 26 38 43 45 43 45 47 47 49 52 52 53 48 50 49 47 49 48 45 44 44 43 41 40 39 37 34 34 33 32 32 32 32 31 31 31 31 30 30
43 37 33 31 32 36 37 39 37 36 40 48 47 49 51 53 41 50 48 47 52 48 48 48 48 44 41 39 39 36 34 33 33 33 32 32 33 32 31 30 30 30 28 28
40 41 34 32 29 26 40 45 43 43 35 48 48 49 49 46 39 49 44 40 43 43 41 41 40 38 38 36 36 34 32 32 32 33 32 33 33 32 31 31 29 28 28 28
33 34 32 33 31 32 34 32 40 33 35 31 37 46 44 42 47 39 38 40 37 37 37 36 35 36 34 34 33 32 31 30 31 31 31 32 32 31 32 30 30 28 27 26
32 31 32 33 30 29 35 33 36 36 31 30 32 33 36 38 38 37 36 35 35 35 34 32 32 31 30 31 32 28 28 29 29 29 29 29 30 31 30 29 28 28 27 27
30 33 32 34 34 38 35 39 39 37 37 36 37 38 36 33 35 35 34 33 32 32 31 30 28 28 28 25 29 28 25 28 28 30 30 31 31 30 31 30 29 28 28 28
30 34 32 34 36 38 35 36 35 36 36 36 35 35 36 36 35 33 33 32 31 24 24 23 25 24 22 24 28 28 31 32 33 31 30 30 30 30 31 31 30 30 27 26
32 31 31 32 34 33 36 35 37 36 35 36 36 36 36 34 34 34 30 26 25 24 23 23 24 24 22 25 27 29 29 32 29 27 25 26 27 28 26 25 26 26 24 28
31 31 32 31 36 35 35 33 34 35 35 36 35 33 32 33 33 30 28 27 26 25 23 25 24 24 22 22 21 21 23 25 25 22 22 23 22 21 21 20 17 26 26 30
MSLP
1017.71 1018.33 1018.63 1018.08 1018.53 1018.66 1018.94 1019.25 1019.26 1018.78 1018.30 1018.72 1018.57 1018.19 1017.90 1017.64 1018.28 1018.32 1018.22 1018.10 1017.86 1017.81 1016.93 1018.00 1018.54 1019.22 1019.95 1020.45 1020.80 1021.11 1021.37 1021.62 1022.02 1022.67 1023.11 1023.64 1023.97 1024.42 1024.65 1024.77 1024.85 1024.93 1025.14 1025.51
1018.46 1018.37 1017.66 1018.10 1018.53 1018.83 1019.02 1019.37 1019.46 1019.04 1018.77 1019.10 1018.66 1018.08 1017.25 1017.23 1016.78 1016.37 1016.32 1016.46 1016.32 1016.38 1016.54 1017.10 1017.73 1018.50 1019.09 1019.69 1020.23 1020.68 1020.98 1021.34 1021.69 1022.14 1022.68 1023.21 1023.79 1024.68 1024.88 1025.09 1025.36 1025.58 1025.63 1025.85
1018.12 1017.64 1017.50 1017.99 1018.60 1019.05 1019.18 1019.44 1019.48 1019.47 1019.20 1019.25 1019.14 1018.15 1017.01 1015.52 1015.36 1015.10 1014.89 1014.60 1014.76 1014.79 1015.20 1016.03 1017.12 1017.52 1018.36 1018.85 1019.39 1019.92 1020.41 1020.81 1021.23 1021.77 1022.43 1023.36 1023.98 1024.70 1025.20 1025.44 1025.68 1026.09 1026.13 1026.32
1018.15 1017.37 1017.60 1018.01 1018.33 1018.69 1018.92 1018.69 1019.08 1019.63 1020.23 1020.11 1019.51 1018.37 1016.79 1015.37 1014.59 1014.15 1013.41 1013.51 1013.16 1013.36 1014.10 1015.00 1015.83 1016.70 1017.17 1017.59 1018.50 1019.20 1019.82 1020.31 1020.78 1021.30 1021.96 1022.39 1022.78 1024.03 1024.65 1025.02 1025.61 1026.16 1026.36 1026.75
1016.68 1017.10 1017.44 1017.56 1017.42 1018.04 1018.25 1018.51 1019.30 1019.89 1020.54 1020.61 1019.85 1019.75 1015.52 1014.98 1014.20 1013.11 1012.19 1011.83 1011.69 1012.04 1012.99 1013.74 1014.44 1014.96 1015.73 1016.97 1017.67 1018.56 1019.38 1020.01 1020.44 1020.95 1021.46 1021.94 1022.68 1023.60 1024.19 1025.03 1025.73 1026.24 1026.70 1027.13
1016.69 1016.66 1016.76 1016.61 1017.15 1017.42 1018.18 1018.84 1019.92 1020.80 1021.22 1020.82 1018.74 1018.87 1014.30 1013.90 1012.47 1011.93 1010.96 1010.51 1010.66 1011.57 1012.33 1013.22 1013.93 1014.83 1015.51 1016.42 1017.23 1017.99 1018.83 1019.57 1020.13 1020.60 1021.03 1021.43 1022.03 1023.24 1024.24 1025.13 1025.71 1026.36 1026.90 1027.61
1016.79 1016.40 1016.33 1016.33 1017.10 1017.74 1018.03 1019.00 1020.49 1021.42 1021.85 1019.74 1018.52 1018.30 1012.85 1012.26 1011.64 1010.97 1010.47 1010.13 1010.75 1011.40 1012.29 1013.08 1013.84 1014.52 1015.21 1015.77 1016.52 1017.40 1018.21 1018.91 1019.53 1020.22 1020.74 1021.25 1021.87 1022.61 1023.18 1024.29 1025.02 1026.01 1026.93 1027.72
1016.49 1016.19 1015.73 1015.57 1015.51 1016.40 1017.71 1017.95 1019.12 1020.05 1021.11 1019.63 1018.74 1016.55 1012.60 1010.91 1010.36 1009.95 1010.07 1010.03 1010.86 1011.72 1012.23 1012.91 1013.68 1014.30 1014.88 1015.42 1015.92 1016.55 1017.34 1018.27 1018.95 1019.70 1020.39 1021.05 1021.67 1022.35 1023.14 1023.72 1024.60 1025.01 1025.91 1026.79
1015.88 1015.55 1014.96 1015.03 1014.96 1015.28 1017.09 1017.50 1017.21 1018.86 1020.67 1020.28 1016.77 1014.08 1011.94 1010.71 1010.20 1009.99 1009.75 1010.15 1010.51 1011.53 1012.08 1012.72 1013.57 1014.07 1014.62 1015.09 1015.48 1016.13 1016.85 1017.62 1018.40 1019.18 1020.02 1020.74 1021.42 1022.10 1022.84 1023.74 1024.51 1025.31 1025.72 1026.59
1014.93 1015.46 1015.25 1015.35 1015.30 1015.38 1015.35 1015.84 1017.47 1018.60 1019.89 1019.41 1015.67 1014.26 1011.75 1010.43 1009.61 1009.21 1009.55 1009.52 1010.16 1011.04 1011.93 1012.56 1013.22 1013.72 1014.20 1014.59 1015.25 1015.92 1016.69 1017.17 1017.74 1018.63 1019.50 1020.32 1021.08 1021.83 1022.69 1023.59 1024.27 1025.14 1026.05 1026.49
1014.45 1015.19 1015.73 1015.86 1015.35 1015.14 1015.93 1015.88 1016.54 1017.21 1017.96 1017.61 1016.12 1011.55 1009.56 1008.93 1008.52 1008.70 1008.75 1008.75 1009.81 1010.63 1011.50 1012.27 1012.94 1013.48 1014.11 1014.59 1014.99 1015.52 1016.18 1016.92 1017.86 1018.50 1019.20 1020.03 1020.77 1021.51 1022.36 1023.17 1024.03 1024.83 1025.69 1026.36
1013.86 1014.65 1015.25 1015.10 1015.11 1015.15 1014.90 1014.65 1015.23 1016.21 1017.13 1017.00 1015.71 1009.70 1008.31 1008.39 1008.60 1008.72 1008.43 1008.81 1009.43 1010.31 1011.25 1012.20 1012.95 1013.37 1013.93 1014.40 1014.87 1015.32 1015.83 1016.41 1017.06 1017.91 1018.82 1019.62 1020.23 1021.15 1022.03 1022.85 1023.77 1024.64 1025.45 1026.18
1013.42 1014.86 1015.80 1015.35 1015.50 1015.28 1014.97 1014.75 1014.54 1015.18 1015.84 1014.74 1014.05 1008.36 1008.31 1007.99 1008.61 1008.41 1008.65 1008.95 1009.39 1010.04 1011.13 1011.98 1012.92 1013.28 1013.57 1013.85 1014.35 1014.77 1015.31 1015.99 1016.79 1017.70 1018.60 1019.45 1019.96 1020.70 1021.56 1022.51 1023.47 1024.38 1025.25 1026.09
1012.19 1014.07 1014.35 1013.61 1013.25 1013.43 1014.42 1014.14 1013.79 1014.06 1014.50 1010.83 1011.93 1007.31 1008.38 1008.35 1008.63 1008.73 1008.68 1008.92 1009.43 1009.83 1010.78 1011.47 1012.27 1012.66 1013.04 1013.48 1013.83 1014.10 1014.53 1015.18 1016.05 1017.02 1017.89 1018.70 1019.36 1019.93 1020.95 1021.96 1022.94 1023.91 1024.74 1025.67
1012.24 1013.16 1013.55 1012.54 1012.94 1012.90 1012.95 1013.18 1013.19 1012.88 1010.85 1011.92 1007.40 1009.23 1005.37 1007.80 1008.19 1008.22 1008.22 1008.55 1008.89 1009.25 1010.23 1010.76 1011.03 1011.55 1012.27 1012.65 1013.15 1013.54 1014.07 1014.61 1015.29 1016.26 1017.02 1017.55 1018.52 1019.40 1020.38 1021.39 1022.41 1023.41 1024.35 1025.34
1012.29 1012.54 1012.99 1012.45 1012.25 1012.70 1012.86 1012.47 1011.62 1011.09 1010.71 1010.54 1008.05 1007.70 1005.34 1006.38 1006.95 1007.59 1007.73 1007.95 1008.32 1008.67 1009.13 1009.24 1009.63 1010.37 1010.87 1011.10 1011.50 1012.24 1012.95 1013.67 1014.48 1015.26 1016.02 1017.09 1018.04 1019.00 1019.94 1021.02 1022.08 1023.07 1023.95 1024.82
1012.32 1012.24 1012.43 1011.35 1010.94 1011.92 1011.59 1009.53 1009.28 1010.09 1008.99 1008.60 1008.05 1003.82 1005.63 1005.31 1006.00 1006.05 1006.63 1007.17 1007.14 1007.44 1007.48 1007.74 1008.28 1008.68 1009.12 1009.26 1009.84 1010.67 1011.60 1012.91 1013.77 1014.64 1015.51 1016.42 1017.44 1018.50 1019.39 1020.40 1021.56 1022.53 1023.38 1024.25
1010.70 1011.67 1011.47 1010.44 1010.84 1009.18 1007.20 1006.94 1007.23 1007.38 1006.57 1007.02 1006.31 1003.91 1003.32 1004.86 1005.05 1005.39 1005.55 1005.90 1006.03 1006.11 1006.30 1006.56 1006.99 1007.34 1007.53 1008.13 1008.99 1009.96 1010.96 1012.03 1013.12 1014.08 1014.90 1015.86 1016.87 1018.00 1019.17 1020.07 1020.97 1022.18 1023.14 1023.89
1010.27 1010.58 1009.29 1009.24 1008.48 1007.71 1006.86 1005.96 1006.56 1007.16 1005.64 1005.85 1005.12 1004.01 1003.34 1004.42 1005.49 1004.01 1004.94 1004.80 1004.80 1005.19 1005.23 1005.42 1005.63 1006.08 1006.72 1007.48 1008.40 1009.56 1010.78 1011.78 1012.70 1013.39 1014.12 1015.04 1015.90 1016.98 1018.40 1019.56 1020.45 1021.49 1022.74 1024.01
1008.77 1008.96 1008.84 1006.78 1006.75 1005.59 1004.53 1004.38 1005.02 1006.32 1006.42 1003.55 1005.08 1004.23 1003.65 1004.45 1005.83 1003.06 1004.19 1004.68 1005.01 1005.34 1005.45 1005.59 1005.75 1006.01 1006.36 1007.07 1008.05 1009.24 1010.34 1011.25 1011.96 1012.87 1013.76 1014.62 1015.37 1016.45 1017.55 1018.89 1020.12 1021.20 1022.33 1023.57
1007.39 1007.43 1006.90 1006.53 1005.55 1005.56 1005.22 1005.33 1005.20 1006.49 1006.23 1005.37 1004.96 1004.23 1004.43 1005.14 1004.68 1005.19 1005.12 1005.37 1005.74 1005.95 1005.86 1005.75 1005.97 1006.48 1006.91 1007.25 1008.11 1009.26 1010.24 1011.11 1011.99 1012.98 1013.87 1014.74 1015.57 1016.39 1017.42 1018.59 1019.76 1020.94 1022.43 1023.46
1007.73 1006.93 1006.18 1006.07 1005.86 1005.77 1005.83 1006.21 1005.99 1005.35 1005.71 1005.80 1005.72 1005.87 1005.90 1005.86 1005.81 1005.96 1006.03 1006.29 1006.43 1006.64 1006.71 1006.72 1006.95 1007.24 1007.63 1007.90 1008.55 1009.74 1010.67 1011.27 1012.00 1012.87 1013.93 1014.97 1015.62 1016.59 1017.57 1018.47 1019.88 1021.05 1022.04 1023.09
1007.80 1006.69 1006.29 1005.97 1004.97 1004.75 1004.86 1004.51 1004.28 1004.63 1005.13 1005.27 1005.07 1005.25 1005.60 1005.90 1006.35 1006.80 1006.94 1007.33 1007.46 1007.60 1007.77 1007.67 1007.71 1008.11 1008.78 1008.87 1009.07 1010.00 1011.01 1011.48 1012.43 1013.32 1014.34 1015.09 1015.76 1016.78 1017.66 1018.67 1019.78 1020.80 1021.58 1022.41
1007.87 1007.00 1006.74 1006.11 1004.82 1004.70 1004.63 1005.07 1005.28 1005.29 1005.23 1005.35 1005.59 1005.73 1005.38 1005.38 1005.68 1006.74 1007.39 1007.91 1008.39 1008.56 1008.69 1008.71 1008.79 1009.30 1009.91 1009.84 1009.90 1010.37 1011.16 1011.67 1012.53 1013.44 1014.49 1015.31 1015.96 1016.82 1017.65 1018.51 1019.30 1020.13 1020.99 1021.82
1007.27 1007.17 1006.43 1005.82 1005.13 1005.34 1004.92 1005.11 1005.12 1005.31 1005.55 1005.70 1005.87 1006.35 1006.17 1005.76 1006.21 1006.47 1007.12 1008.22 1008.89 1009.03 1009.07 1009.54 1009.57 1010.17 1010.70 1010.65 1010.79 1011.04 1011.44 1012.04 1013.05 1013.96 1014.85 1015.61 1016.18 1016.92 1017.66 1018.38 1018.96 1019.69 1020.36 1020.82
1007.56 1006.62 1006.56 1005.95 1005.68 1005.62 1005.26 1005.52 1005.31 1005.50 1005.59 1005.60 1005.88 1006.23 1006.46 1006.51 1006.76 1007.37 1008.04 1008.32 1009.15 1009.68 1010.06 1010.30 1010.57 1010.89 1011.46 1011.66 1012.00 1012.30 1012.38 1012.66 1013.34 1014.57 1015.53 1016.14 1016.68 1017.37 1018.11 1018.93 1019.82 1020.14 1020.56 1021.07
Wind_Speed
3 4 8 13 7 3 6 4 4 5 3 4 8 11 11 8 6 11 11 11 15 17 16 9 10 9 8 7 8 8 8 8 8 5 4 3 4 3 3 3 5 5 7 7
5 7 11 5 5 4 3 3 6 5 3 3 8 15 14 7 10 11 16 15 16 12 9 9 10 11 12 11 10 9 10 10 9 4 3 4 4 3 3 3 4 4 6 7
9 5 4 8 4 5 4 6 5 7 3 4 5 9 10 8 6 7 11 14 12 18 17 11 12 15 12 13 14 13 12 13 10 8 7 5 6 5 3 2 3 2 5 6
7 4 5 4 5 8 7 9 6 4 2 5 1 9 8 7 10 9 14 12 20 19 11 8 14 14 16 16 13 12 12 12 9 12 7 12 6 6 4 3 4 4 5 6
10 9 6 7 8 9 7 5 7 3 3 4 3 1 8 2 8 14 15 16 16 14 11 14 16 18 14 13 14 12 12 11 10 11 10 10 9 3 4 6 8 6 5 5
4 1 7 7 2 5 8 7 6 5 3 6 11 9 11 8 11 7 10 14 11 8 9 8 7 8 11 11 13 13 14 12 11 12 11 12 13 11 10 8 8 6 5 4
2 5 3 3 7 3 2 6 2 4 1 13 2 4 19 4 9 13 14 13 7 5 6 8 10 11 11 15 15 13 14 14 14 12 11 10 12 13 16 14 10 11 7 3
10 11 12 8 10 10 9 9 9 9 6 7 3 10 11 11 9 10 8 11 4 5 6 8 8 9 11 14 15 16 16 15 15 13 10 8 11 9 8 11 10 10 10 8
6 8 2 3 3 12 8 9 4 2 2 3 7 9 10 11 12 10 13 6 8 8 8 8 7 8 9 12 15 16 16 15 14 14 11 11 11 12 10 10 10 7 6 7
4 6 1 3 2 1 7 7 4 2 3 6 7 7 10 6 12 14 10 13 6 6 7 7 8 9 8 9 11 12 13 14 15 13 11 11 12 11 11 10 12 11 7 10
7 5 2 1 8 10 4 5 2 4 6 6 4 10 10 14 12 10 10 5 6 8 8 7 7 7 7 6 10 12 12 12 12 12 11 12 11 12 12 12 12 11 10 11
10 5 13 13 2 3 3 6 8 6 6 4 3 20 5 9 7 8 9 5 1 4 5 5 6 7 8 9 10 11 12 13 13 12 12 12 13 12 13 12 12 11 12 10
7 4 3 8 2 2 5 6 6 5 4 12 7 23 4 4 7 5 7 6 4 3 4 5 6 8 9 11 11 12 13 13 12 12 12 11 12 13 13 13 12 12 11 10
12 6 10 13 5 6 6 7 12 13 8 23 14 32 10 4 7 8 9 8 8 6 7 7 7 9 9 10 11 12 13 13 13 13 14 14 14 14 13 13 13 13 13 13
9 10 14 21 7 5 8 7 12 21 28 9 33 18 28 16 12 10 10 6 9 9 8 9 10 10 10 11 11 11 12 13 14 15 15 15 13 13 13 13 13 13 12 11
8 6 9 18 18 8 7 8 17 22 22 21 30 29 10 9 6 6 12 15 11 10 11 12 10 10 14 15 15 14 14 15 15 16 15 13 13 13 13 13 13 13 12 11
10 7 7 14 10 8 10 29 25 19 19 21 22 38 10 21 16 18 15 12 14 11 14 14 14 15 14 17 16 18 15 13 15 14 12 13 14 14 14 14 14 14 14 13
8 12 7 7 5 14 14 6 22 23 28 24 27 35 31 18 16 11 12 12 13 15 12 9 10 12 14 11 13 11 13 14 14 14 13 14 14 14 13 14 14 13 12 13
15 12 8 11 17 9 10 9 9 11 21 20 28 30 30 24 5 25 9 14 17 12 12 11 9 8 7 11 11 12 12 12 13 15 15 15 16 16 15 15 14 12 10 8
24 17 9 5 10 11 13 11 10 7 12 16 17 26 27 6 9 23 3 2 6 7 6 7 6 5 8 8 11 13 13 13 14 13 13 13 14 15 15 14 13 10 9 9
15 16 23 19 12 5 6 5 6 11 9 6 4 14 11 8 10 1 5 6 4 4 8 4 3 4 5 9 11 10 10 11 8 9 10 11 11 12 13 12 9 11 9 8
8 7 9 11 12 15 8 2 11 6 2 4 1 3 4 5 9 6 6 6 7 6 4 2 5 5 5 8 10 8 8 7 9 11 11 9 10 9 9 13 10 11 11 10
5 6 4 9 6 1 8 6 5 8 9 8 7 7 4 4 4 6 5 6 5 5 3 2 5 7 5 4 8 10 6 10 11 11 11 10 11 10 11 12 12 10 9 8
5 4 4 1 5 9 5 4 2 6 5 3 3 5 8 7 5 3 4 3 2 2 2 2 6 6 4 4 6 7 9 10 12 11 11 11 12 11 10 8 7 7 8 8
5 5 5 5 7 5 10 8 8 10 5 5 6 5 5 4 5 5 5 2 1 1 2 2 5 5 4 4 6 7 8 10 9 8 8 7 7 9 7 5 7 7 5 9
6 6 5 5 4 3 4 4 2 7 8 8 5 1 1 1 3 3 2 4 3 3 2 4 5 7 5 6 7 6 5 6 9 8 6 5 6 6 6 6 4 4 7 11
Wind_Direction
8 100 206 210 194 127 137 178 222 249 242 182 237 261 260 263 221 250 245 238 239 235 245 206 198 191 190 188 180 179 169 159 151 145 134 123 116 98 65 58 66 97 115 112
43 226 230 128 164 173 144 183 248 281 247 197 273 265 261 227 236 213 230 234 236 237 217 205 195 188 192 187 187 178 184 170 171 159 127 133 133 88 95 85 73 72 112 120
171 218 122 151 159 163 212 190 219 227 331 245 317 279 254 258 241 255 246 238 239 231 232 211 194 200 189 192 186 185 183 177 174 140 120 101 92 86 97 88 94 77 111 112
234 234 151 176 193 155 240 205 172 183 65 250 121 287 282 246 246 232 249 230 237 236 233 199 199 200 198 200 182 180 179 180 168 155 153 167 150 155 174 142 127 115 116 116
237 176 177 190 200 166 223 130 159 135 172 324 177 262 252 303 267 258 248 245 239 234 210 213 204 206 203 182 181 178 175 175 164 170 171 171 154 111 121 128 128 122 103 109
236 146 169 198 115 159 150 83 58 53 96 277 177 161 260 200 216 260 257 250 245 223 218 220 197 181 185 174 175 174 176 180 170 174 174 177 155 147 142 147 142 142 127 122
111 215 189 157 92 52 143 104 311 331 27 240 66 168 252 307 257 224 245 262 265 224 196 198 187 186 177 181 179 174 176 182 177 176 177 171 162 161 161 162 161 152 150 156
200 259 163 192 189 164 200 165 171 208 201 262 135 230 251 241 266 265 258 258 226 190 217 215 200 190 187 186 183 179 179 179 178 176 172 163 162 164 169 169 165 162 163 163
169 262 222 164 154 154 196 208 243 83 91 4 230 279 294 255 268 264 251 303 258 222 234 219 193 192 183 187 188 185 178 177 178 175 166 169 166 164 166 162 161 164 140 147
227 283 99 324 130 25 172 167 84 337 193 249 267 264 229 272 246 254 263 249 263 237 245 215 197 189 186 184 181 181 184 182 176 171 168 168 167 162 160 161 162 161 149 146
193 170 231 117 216 168 140 207 174 138 159 188 288 261 214 220 222 225 246 243 217 223 236 225 197 186 180 170 174 178 175 164 169 171 165 164 162 163 163 171 167 162 155 155
208 191 245 223 253 253 287 239 165 146 221 243 168 268 159 219 271 234 254 274 210 217 236 226 197 174 173 177 175 181 180 176 175 169 167 173 164 165 169 171 167 159 162 160
171 148 297 312 344 328 218 202 185 113 76 225 158 258 327 24 312 258 253 271 271 198 202 201 200 194 193 191 189 186 184 182 171 166 167 170 172 170 175 169 162 161 155 156
138 161 194 231 194 138 190 201 190 192 209 243 230 260 261 298 260 292 284 249 257 237 218 206 211 208 202 200 197 194 191 182 171 171 174 178 181 176 172 166 166 165 164 162
147 214 214 242 246 175 194 191 199 208 230 201 252 246 253 239 253 254 248 254 230 236 224 220 215 208 201 199 201 199 195 184 175 178 182 186 175 172 168 166 166 163 164 166
168 238 189 250 243 207 241 217 218 218 233 239 255 260 272 229 236 242 242 251 256 239 232 232 220 199 206 203 201 193 195 188 178 185 186 176 169 166 168 165 166 163 162 156
187 195 186 239 229 187 233 236 238 228 230 222 242 250 242 262 245 245 252 232 242 239 234 230 215 214 212 206 194 200 190 173 184 184 176 170 167 170 170 163 162 167 167 159
185 201 203 238 148 217 233 189 218 218 232 224 244 255 257 258 261 251 236 245 237 239 245 235 219 222 218 199 193 181 175 176 180 181 175 170 168 167 162 161 168 166 165 168
223 200 232 222 235 252 287 243 166 170 250 227 229 250 260 259 339 273 230 217 239 230 232 236 238 224 180 183 173 162 165 171 175 185 179 174 169 164 164 171 167 157 153 162
214 239 225 189 221 233 239 236 151 106 257 247 213 241 253 230 240 266 55 330 271 273 267 263 244 201 166 163 154 156 169 174 186 179 174 170 168 166 167 160 156 150 153 163
205 213 228 241 252 268 255 234 128 164 229 324 300 248 274 206 233 350 347 309 338 310 314 314 190 179 149 135 143 155 158 179 158 149 150 159 163 159 159 149 147 145 152 148
200 215 221 218 228 237 185 105 174 187 270 179 20 338 322 303 307 311 305 302 322 320 343 73 108 111 121 127 130 130 146 134 131 135 140 143 136 137 141 142 142 150 155 162
260 224 202 201 212 236 208 209 208 167 174 198 174 189 193 271 295 321 319 337 342 341 354 38 117 102 70 81 124 126 139 125 124 126 135 138 136 140 145 151 159 160 165 175
232 225 212 246 248 247 226 272 245 213 229 174 225 217 178 188 193 258 309 323 328 352 13 41 93 93 90 90 104 124 140 136 138 140 146 150 150 150 156 164 163 167 177 185
230 150 198 266 282 293 264 229 213 226 239 202 186 226 258 193 199 181 159 207 231 38 57 63 113 114 100 92 95 109 124 133 127 122 127 136 139 151 144 130 161 175 186 193
201 184 189 243 249 260 278 347 250 212 212 217 191 204 270 269 162 119 143 134 140 99 33 97 93 105 90 84 80 74 78 113 126 122 135 143 137 132 134 128 101 128 166 182